Location: Favalello
(42.2939°N, 9.2706°E)
Time: 06:13:16
(UTC+00:00)

Cosmos 2219 Rocket - Pass Details

Date: 06 December 2019
Orbit: 826 x 848 km, 71.0° (Epoch: 17 January)

Event Time Altitude Azimuth Distance (km) Brightness Sun altitude
Rises 17:04:29 0° 212° (SSW) 3,356 6.2 -13.3°
Reaches altitude 10° 17:06:56 10° 215° (SW) 2,429 5.4 -13.7°
Maximum altitude 17:12:27 63° 297° (WNW) 927 2.6 -14.7°
Drops below altitude 10° 17:18:02 10° 19° (NNE) 2,459 4.3 -15.7°
Enters shadow 17:18:48 - 20° (NNE) 2,742 4.5 -15.8°
